Location: ????
(30.2663°N, 31.2484°E)
Time: 07:16:30
(UTC+00:00)

CZ-2C R/B - Visible Passes

Search period start: 24 March 2023 00:00
Search period end: 03 April 2023 00:00
Orbit: 784 x 869 km, 98.3° (Epoch: 23 March)

Date Brightness Start Highest point End Pass type
(mag) Time Alt. Az. Time Alt. Az. Time Alt. Az.
24 Mar 3.7 01:13:49 44° NE 01:13:49 44° NE 01:18:09 10° N visible
24 Mar 4.4 02:55:17 14° WNW 02:55:17 14° WNW 02:56:40 10° NW visible
25 Mar 4.3 00:54:30 32° ENE 00:54:30 32° ENE 00:59:02 10° N visible
25 Mar 3.9 02:35:58 22° WNW 02:35:58 22° WNW 02:38:53 10° NW visible
26 Mar 4.8 00:35:11 22° ENE 00:35:31 22° ENE 00:39:41 10° NNE visible
26 Mar 3.4 02:16:39 35° WNW 02:16:39 35° WNW 02:20:39 10° NNW visible
27 Mar 5.3 00:15:52 14° E 00:16:58 14° ENE 00:19:51 10° NE visible
27 Mar 2.8 01:57:21 56° WNW 01:57:21 56° WNW 02:02:09 10° NNW visible
28 Mar 2.6 01:38:01 86° N 01:38:01 86° N 01:43:28 10° NNW visible
29 Mar 3.2 01:18:43 57° E 01:19:10 59° ENE 01:24:37 10° N visible
29 Mar 4.3 03:00:12 14° W 03:00:12 14° W 03:02:24 10° WNW visible
30 Mar 4.0 00:59:24 35° E 01:00:29 38° ENE 01:05:35 10° N visible
30 Mar 3.8 02:40:53 22° W 02:40:53 22° W 02:44:56 10° NW visible
31 Mar 4.6 00:40:06 22° E 00:41:51 26° ENE 00:46:19 10° NNE visible
31 Mar 3.3 02:21:34 33° WSW 02:21:52 33° W 02:26:50 10° NW visible
01 Apr 5.2 00:20:48 13° E 00:23:16 17° ENE 00:26:43 10° NNE visible
01 Apr 2.8 02:02:16 47° SW 02:03:03 51° W 02:08:26 10° NNW visible
02 Apr 5.6 00:03:25 10° ENE 00:04:44 11° ENE 00:06:01 10° NE visible
02 Apr 2.6 01:42:58 54° S 01:44:16 78° WSW 01:49:49 10° NNW visible
